User: anonymous   Login
Location: Arcizac
(43.0933°N, 0.0112°E)
Time: 14:26:13
(UTC+00:00)
Language:

Cosmos 1417 Rocket - Orbit

View from above orbital plane
View from above orbital plane
View from above satellite
View from above satellite

Ground track
Ground track

The orbit data is extracted from the following two-line orbital elements,

1 13618U 82102B   20056.57622645 +.00000070 +00000-0 +55927-4 0  9991
2 13618 082.9680 131.5138 0030462 258.8578 211.8979 13.76758099876366
Epoch (UTC): 25 February 2020 13:49:45
Eccentricity: 0.0030462
inclination: 82.9680°
perigee height: 953 km
apogee height: 998 km
right ascension of ascending node: 131.5138°
argument of perigee: 258.8578°
revolutions per day: 13.76758099
mean anomaly at epoch: 211.8979°
orbit number at epoch: 87636

The dashed part of the orbit path shows where the satellite is in the earth's shadow,  

DLR